EW1617 Weather Reports


Display with metric or nautical units.
time (UTC)temp
F
wind
direction
speed
MPH
gust
MPH
rain 1hr
in
rain 24hr
in
rain mn
in
humidity
%
barometer
mb
20260504015007 87 150 5.0 6.0 0.00 0.00 0.00 34 1005.8
20260504014507 88 108 5.0 8.0 0.00 0.00 0.00 34 1005.8
20260504014007 88 207 5.0 7.0 0.00 0.00 0.00 34 1005.8
20260504013507 89 225 2.0 4.0 0.00 0.00 0.00 34 1005.9
20260504013008 89 340 3.0 6.0 0.00 0.00 0.00 35 1006.1
20260504012506 89 117 6.0 9.0 0.00 0.00 0.00 33 1006.1
20260504012007 89 272 7.0 8.0 0.00 0.00 0.00 33 1006.1
20260504011507 90 190 6.0 8.0 0.00 0.00 0.00 32 1006.1
20260504011007 91 316 6.0 9.0 0.00 0.00 0.00 32 1006.1
20260504010507 92 288 5.0 7.0 0.00 0.00 0.00 31 1006.1
20260504010007 93 207 5.0 7.0 0.00 0.00 0.00 31 1006.1
20260504005507 94 234 3.0 6.0 0.00 0.00 0.00 30 1006.1
20260504005007 94 270 3.0 7.0 0.00 0.00 0.00 29 1006.1
20260504004507 95 162 5.0 7.0 0.00 0.00 0.00 28 1006.2
20260504004006 95 208 6.0 8.0 0.00 0.00 0.00 29 1006.2
20260504003507 95 253 5.0 7.0 0.00 0.00 0.00 28 1006.2
20260504003008 95 252 3.0 5.0 0.00 0.00 0.00 28 1006.4
20260504002506 95 144 5.0 6.0 0.00 0.00 0.00 29 1006.4
20260504002007 95 280 3.0 6.0 0.00 0.00 0.00 29 1006.3
20260504001507 95 171 4.0 7.0 0.00 0.00 0.00 29 1006.4
20260504001007 95 226 6.0 8.0 0.00 0.00 0.00 28 1006.4
20260504000508 95 162 7.0 8.0 0.00 0.00 0.00 27 1006.4
20260504000007 96 144 5.0 6.0 0.00 0.00 0.00 28 1006.4
20260503235507 96 218 5.0 8.0 0.00 0.00 0.00 29 1006.4
20260503235007 95 270 6.0 8.0 0.00 0.00 0.00 29 1006.4
20260503234507 95 244 6.0 9.0 0.00 0.00 0.00 30 1006.4
20260503234007 96 243 5.0 6.0 0.00 0.00 0.00 29 1006.4
20260503233508 95 254 5.0 6.0 0.00 0.00 0.00 30 1006.6
20260503233007 95 261 2.0 6.0 0.00 0.00 0.00 30 1006.8
20260503232507 96 217 6.0 7.0 0.00 0.00 0.00 30 1006.8
20260503232007 95 126 5.0 6.0 0.00 0.00 0.00 30 1006.8
20260503231507 95 189 4.0 6.0 0.00 0.00 0.00 30 1006.8
20260503231007 96 217 6.0 9.0 0.00 0.00 0.00 30 1006.8
20260503230506 95 144 6.0 7.0 0.00 0.00 0.00 31 1007.0
20260503230007 95 234 5.0 7.0 0.00 0.00 0.00 30 1007.1
20260503225507 96 154 5.0 6.0 0.00 0.00 0.00 31 1007.1
20260503225006 96 144 4.0 6.0 0.00 0.00 0.00 31 1007.1
20260503224507 96 153 6.0 7.0 0.00 0.00 0.00 29 1007.4
20260503224007 96 189 4.0 5.0 0.00 0.00 0.00 31 1007.5
20260503223507 96 81 3.0 5.0 0.00 0.00 0.00 31 1007.5
20260503223008 96 108 5.0 7.0 0.00 0.00 0.00 32 1007.5
20260503222507 96 100 6.0 7.0 0.00 0.00 0.00 29 1007.5
20260503222007 95 180 5.0 6.0 0.00 0.00 0.00 31 1007.8
20260503221507 95 259 6.0 6.0 0.00 0.00 0.00 31 1007.8
20260503221007 95 225 5.0 8.0 0.00 0.00 0.00 31 1007.8
20260503220507 95 135 6.0 8.0 0.00 0.00 0.00 32 1007.9
20260503220007 95 244 5.0 6.0 0.00 0.00 0.00 33 1008.1
20260503215507 95 308 5.0 7.0 0.00 0.00 0.00 33 1008.1
20260503215006 94 235 6.0 8.0 0.00 0.00 0.00 33 1008.1
20260503214507 94 117 5.0 7.0 0.00 0.00 0.00 33 1008.1
20260503214007 94 270 7.0 9.0 0.00 0.00 0.00 34 1008.1
20260503213507 94 244 5.0 6.0 0.00 0.00 0.00 34 1008.5
20260503213008 94 145 5.0 6.0 0.00 0.00 0.00 34 1008.5
20260503212508 94 124 3.0 6.0 0.00 0.00 0.00 35 1008.5
20260503212007 93 54 1.0 5.0 0.00 0.00 0.00 35 1008.5
20260503211507 93 216 5.0 8.0 0.00 0.00 0.00 36 1008.5
20260503211007 92 180 2.0 5.0 0.00 0.00 0.00 36 1008.7
20260503210507 92 225 2.0 5.0 0.00 0.00 0.00 38 1008.8
20260503210007 92 27 4.0 7.0 0.00 0.00 0.00 38 1008.8
20260503205507 91 189 3.0 5.0 0.00 0.00 0.00 39 1008.9
20260503205007 91 327 3.0 8.0 0.00 0.00 0.00 38 1009.1
20260503204507 90 345 2.0 5.0 0.00 0.00 0.00 39 1009.1
20260503204007 90 217 3.0 5.0 0.00 0.00 0.00 40 1009.1
20260503203507 89 72 4.0 7.0 0.00 0.00 0.00 41 1009.2
20260503203007 88 136 4.0 7.0 0.00 0.00 0.00 42 1009.4
20260503202507 88 181 5.0 10.0 0.00 0.00 0.00 42 1009.5
20260503202008 88 225 5.0 7.0 0.00 0.00 0.00 43 1009.5
20260503201507 87 252 6.0 7.0 0.00 0.00 0.00 43 1009.5
20260503201008 87 199 5.0 9.0 0.00 0.00 0.00 44 1009.5
20260503200507 86 126 4.0 8.0 0.00 0.00 0.00 45 1009.8
20260503200006 86 207 5.0 7.0 0.00 0.00 0.00 46 1009.8
20260503195507 85 279 6.0 7.0 0.00 0.00 0.00 46 1009.8
20260503195007 85 99 6.0 8.0 0.00 0.00 0.00 45 1009.8
20260503194507 85 144 6.0 10.0 0.00 0.00 0.00 45 1010.1
20260503194006 85 162 4.0 8.0 0.00 0.00 0.00 45 1010.2
20260503193507 85 108 3.0 6.0 0.00 0.00 0.00 46 1010.2
20260503193008 84 135 3.0 8.0 0.00 0.00 0.00 48 1010.2
20260503192507 83 234 6.0 6.0 0.00 0.00 0.00 48 1010.4
20260503192007 83 171 5.0 8.0 0.00 0.00 0.00 48 1010.5
20260503191507 82 171 4.0 5.0 0.00 0.00 0.00 49 1010.5
20260503191007 81 346 2.0 4.0 0.00 0.00 0.00 52 1010.5
20260503190507 80 99 2.0 4.0 0.00 0.00 0.00 51 1010.7
20260503190006 80 18 5.0 8.0 0.00 0.00 0.00 52 1010.8
20260503185507 79 207 2.0 4.0 0.00 0.00 0.00 54 1010.8
20260503185007 78 90 3.0 6.0 0.00 0.00 0.00 55 1010.8
20260503184507 78 262 5.0 5.0 0.00 0.00 0.00 56 1011.0
20260503184007 77 306 3.0 6.0 0.00 0.00 0.00 58 1011.2
20260503183507 76 243 1.0 5.0 0.00 0.00 0.00 59 1011.2
20260503183007 76 225 1.0 5.0 0.00 0.00 0.00 59 1011.2
20260503182507 75 270 3.0 7.0 0.00 0.00 0.00 60 1011.2
20260503182007 75 308 0.0 1.0 0.00 0.00 0.00 61 1011.2
20260503181507 74 272 3.0 6.0 0.00 0.00 0.00 62 1011.5
20260503181008 74 279 4.0 6.0 0.00 0.00 0.00 62 1011.5
20260503180508 73 365 0.0 1.0 0.00 0.00 0.00 65 1011.5
20260503180007 73 227 4.0 6.0 0.00 0.00 0.00 67 1011.5
20260503175507 72 248 5.0 9.0 0.00 0.00 0.00 68 1011.5
20260503175007 72 54 3.0 5.0 0.00 0.00 0.00 74 1011.5
20260503174506 71 252 1.0 5.0 0.00 0.00 0.00 75 1011.6
20260503174007 71 225 1.0 4.0 0.00 0.00 0.00 77 1011.9
20260503173508 70 225 0.0 0.0 0.00 0.00 0.00 75 1011.9
20260503173007 70 280 6.0 7.0 0.00 0.00 0.00 76 1011.9
20260503172507 70 307 3.0 5.0 0.00 0.00 0.00 83 1011.9
20260503172007 69 234 2.0 7.0 0.00 0.00 0.00 84 1011.9
20260503171507 69 234 1.0 4.0 0.00 0.00 0.00 87 1011.9
20260503171006 68 306 3.0 5.0 0.00 0.00 0.00 89 1011.9
20260503170507 68 248 1.0 1.0 0.00 0.00 0.00 90 1011.9
20260503151007 56 0 0.0 0.0 0.00 0.00 0.00 99 1012.5
20260503150507 56 0 0.0 0.0 0.00 0.00 0.00 99 1012.5
20260503131007 51 0 0.0 0.0 0.00 0.00 0.00 99 1012.2
20260503130507 51 0 0.0 0.0 0.00 0.00 0.00 99 1012.2
20260503110507 54 0 0.0 0.0 0.00 0.00 0.00 99 1012.4
20260503090507 55 0 0.0 0.0 0.00 0.00 0.00 99 1012.5
20260503081508 56 0 0.0 0.0 0.00 0.00 0.00 99 1012.5
20260503081006 56 0 0.0 0.0 0.00 0.00 0.00 99 1012.5
20260503080507 56 0 0.0 0.0 0.00 0.00 0.00 99 1012.5
20260503072507 57 0 0.0 0.0 0.00 0.00 0.00 98 1012.5
20260503072007 57 0 0.0 0.0 0.00 0.00 0.00 98 1012.5
20260503071507 57 0 0.0 0.0 0.00 0.00 0.00 98 1012.5
20260503071007 57 0 0.0 0.0 0.00 0.00 0.00 98 1012.5
20260503070507 57 0 0.0 0.0 0.00 0.00 0.00 98 1012.5
20260503055007 60 0 0.0 0.0 0.00 0.00 0.00 96 1012.3
20260503054507 60 0 0.0 0.0 0.00 0.00 0.00 96 1012.2
20260503054007 61 0 0.0 0.0 0.00 0.00 0.00 96 1012.2
20260503053507 61 0 0.0 0.0 0.00 0.00 0.00 96 1012.2
20260503053008 61 0 0.0 0.0 0.00 0.00 0.00 95 1012.2
20260503052507 61 0 0.0 1.0 0.00 0.00 0.00 95 1012.2
20260503052007 61 0 0.0 0.0 0.00 0.00 0.00 95 1012.2
20260503051507 61 0 0.0 0.0 0.00 0.00 0.00 95 1012.3
20260503051006 61 0 0.0 0.0 0.00 0.00 0.00 95 1012.5
20260503050507 61 0 0.0 1.0 0.00 0.00 0.00 95 1012.5
20260503050007 62 108 1.0 3.0 0.00 0.00 0.00 95 1012.7
20260503045507 62 135 0.0 0.0 0.00 0.00 0.00 95 1012.8
20260503045007 62 135 0.0 0.0 0.00 0.00 0.00 95 1012.7
20260503044506 62 135 0.0 0.0 0.00 0.00 0.00 94 1012.9
20260503044007 62 99 1.0 3.0 0.00 0.00 0.00 94 1012.7
20260503043507 62 90 0.0 0.0 0.00 0.00 0.00 94 1012.5
20260503043007 63 90 0.0 0.0 0.00 0.00 0.00 94 1012.5
20260503042508 63 90 0.0 0.0 0.00 0.00 0.00 94 1012.5
20260503042007 63 90 0.0 0.0 0.00 0.00 0.00 94 1012.5
20260503041507 63 90 0.0 0.0 0.00 0.00 0.00 94 1012.5
20260503041007 63 90 0.0 1.0 0.00 0.00 0.00 94 1012.5
20260503040507 63 90 0.0 1.0 0.00 0.00 0.00 93 1012.5
20260503040007 64 90 0.0 0.0 0.00 0.00 0.00 93 1012.5
20260503035506 64 90 0.0 0.0 0.00 0.00 0.00 93 1012.5
20260503035007 64 90 0.0 0.0 0.00 0.00 0.00 93 1012.5
20260503034507 64 90 0.0 0.0 0.00 0.00 0.00 93 1012.4
20260503034007 65 90 1.0 4.0 0.00 0.00 0.00 93 1012.3
20260503033507 65 90 0.0 0.0 0.00 0.00 0.00 92 1012.2
20260503033007 65 90 0.0 0.0 0.00 0.00 0.00 92 1012.2
20260503032507 65 90 0.0 0.0 0.00 0.00 0.00 92 1012.2
20260503032007 65 90 0.0 0.0 0.00 0.00 0.00 92 1012.2
20260503031507 65 90 2.0 5.0 0.00 0.00 0.00 91 1012.2
20260503031007 65 180 3.0 7.0 0.00 0.00 0.00 91 1012.1
20260503030507 66 144 5.0 7.0 0.00 0.00 0.00 91 1011.9
20260503030007 66 153 6.0 9.0 0.00 0.00 0.00 90 1012.2
20260503025507 66 171 7.0 9.0 0.00 0.00 0.00 90 1012.2
20260503025007 66 144 8.0 9.0 0.00 0.00 0.00 89 1012.2
20260503024507 67 135 8.0 11.0 0.00 0.00 0.00 87 1012.2
20260503024007 67 180 7.0 9.0 0.00 0.00 0.00 86 1012.2
20260503023506 67 144 8.0 10.0 0.00 0.00 0.00 84 1012.2
20260503023007 68 135 8.0 9.0 0.00 0.00 0.00 81 1012.2
20260503022508 69 99 8.0 9.0 0.00 0.00 0.00 79 1012.2
20260503022007 70 153 10.0 11.0 0.00 0.00 0.00 75 1011.9
20260503021506 70 117 8.0 9.0 0.00 0.00 0.00 73 1011.9
20260503021007 71 135 7.0 9.0 0.00 0.00 0.00 71 1011.9
20260503020507 71 108 8.0 9.0 0.00 0.00 0.00 71 1011.6
20260503020007 71 144 8.0 10.0 0.00 0.00 0.00 68 1011.4
20260503015506 72 113 8.0 9.0 0.00 0.00 0.00 65 1011.2